Vorticity
nan nan nan nan nan nan nan nan nan nan nan nan nan nan nan nan nan nan nan nan nan nan nan nan nan nan nan nan nan nan nan nan nan nan nan nan nan nan nan nan nan nan nan nan nan nan nan nan nan nan nan nan nan nan nan nan nan nan nan nan nan nan nan nan nan nan nan nan nan nan nan nan nan nan nan nan nan nan nan nan nan nan nan nan nan nan nan nan nan nan nan nan nan nan nan nan nan nan nan nan nan nan nan
nan 4 4 5 5 5 6 6 6 6 5 5 5 5 5 5 5 5 5 4 4 4 4 4 4 4 4 5 5 6 6 6 6 6 6 6 5 4 3 3 3 3 4 4 4 5 11 19 20 15 5 7 6 6 6 6 7 7 7 6 5 6 7 7 8 8 7 7 7 7 7 6 5 5 6 6 7 7 3 2 2 4 8 13 16 18 19 18 18 18 19 18 14 10 8 8 9 9 8 6 6 7 nan
nan 4 4 5 5 5 6 6 6 5 5 5 5 5 5 5 5 5 4 4 4 3 4 4 4 4 5 5 6 6 6 7 7 7 7 6 5 5 3 3 3 4 4 4 6 8 15 22 20 13 5 7 7 8 7 5 5 5 5 5 5 6 7 5 6 8 8 7 7 7 6 5 5 5 4 4 4 5 4 2 2 2 4 6 9 11 12 12 12 11 11 10 9 7 6 6 7 6 5 6 5 6 nan
nan 4 5 5 5 5 6 5 5 5 5 5 5 6 6 6 5 5 4 4 4 4 4 4 5 5 5 6 6 6 7 7 7 7 7 7 6 5 4 3 4 4 4 5 7 12 19 19 13 8 5 6 7 8 8 6 5 4 4 4 5 6 7 5 6 7 7 7 6 6 5 6 6 5 3 3 3 4 4 4 3 2 2 3 4 6 7 7 7 6 5 4 4 5 5 5 6 5 5 5 5 6 nan
nan 5 5 5 5 5 5 5 4 4 5 6 7 7 6 5 5 5 4 4 4 4 5 5 5 6 6 6 6 6 7 7 7 7 7 7 6 6 5 4 4 4 5 5 7 11 16 16 10 6 6 6 6 7 7 7 5 4 4 4 5 6 8 6 6 6 6 6 6 6 6 6 5 4 2 2 3 4 5 6 4 3 2 2 3 4 5 5 6 5 5 4 4 4 4 5 5 5 5 5 5 5 nan
nan 5 5 5 5 5 4 4 4 4 6 7 7 7 6 5 5 5 5 4 4 5 5 5 6 6 7 6 7 6 7 7 7 7 7 7 7 6 5 4 4 4 5 5 6 9 16 20 12 6 5 6 7 7 7 7 6 5 4 4 4 6 7 8 7 6 7 7 6 6 5 5 3 3 4 4 5 5 6 7 6 4 3 2 3 4 4 5 5 5 5 5 4 4 4 4 4 4 4 5 5 5 nan
nan 5 5 4 4 4 4 4 4 5 7 7 7 6 5 5 5 5 5 4 5 5 5 6 6 7 7 7 6 6 7 7 7 7 7 7 7 6 5 4 4 4 5 5 6 9 16 18 12 6 6 6 7 8 8 8 8 7 5 3 3 5 8 9 8 7 7 6 6 6 6 5 4 3 3 5 6 6 7 7 6 6 4 4 4 4 4 4 5 5 5 5 5 5 4 4 4 4 4 5 5 5 nan
nan 4 4 4 4 4 4 5 6 7 7 7 6 5 6 5 5 5 4 4 4 5 5 6 7 7 7 7 7 6 6 7 7 7 7 7 6 6 5 4 4 4 4 4 5 6 14 15 10 6 6 6 6 8 9 7 6 6 5 4 3 5 9 10 8 7 5 6 5 6 6 6 6 6 6 7 7 7 7 8 8 7 5 4 4 5 5 4 4 5 5 5 5 5 5 5 4 4 4 4 4 5 nan
nan 3 3 3 4 4 5 6 6 7 6 6 5 5 6 6 5 5 4 4 4 5 6 7 8 8 8 7 7 6 6 6 7 7 7 6 6 5 4 4 4 4 4 4 4 3 11 15 10 6 5 6 6 7 10 7 4 4 4 4 5 7 10 10 8 6 5 5 6 6 7 8 9 9 9 8 8 8 9 9 9 8 6 6 5 5 5 4 4 5 5 5 5 5 5 5 5 5 4 4 4 4 nan
nan 3 3 3 5 7 7 7 7 6 6 5 5 6 6 6 5 5 4 4 5 5 7 8 8 8 8 7 6 6 6 6 6 6 6 6 5 4 4 3 3 4 4 3 3 2 11 16 10 7 6 5 6 7 8 8 5 4 3 4 7 9 11 10 7 5 5 6 7 7 7 9 11 12 11 10 9 10 10 10 9 9 7 6 5 4 5 4 5 5 5 5 5 5 5 5 5 5 5 4 4 4 nan
nan 2 2 3 5 8 9 9 8 6 6 5 5 6 6 6 5 4 4 4 5 6 7 8 8 8 7 7 6 6 6 6 6 6 5 5 4 3 3 3 3 3 3 3 3 4 11 15 12 9 6 5 6 7 8 7 5 4 2 4 7 10 11 9 7 6 6 6 7 8 9 10 11 12 12 11 10 11 10 10 9 8 7 6 5 5 4 4 4 4 5 5 5 5 5 5 5 5 5 5 5 5 nan
nan 2 2 2 5 9 11 10 8 6 6 6 6 6 6 6 5 4 4 4 5 6 7 8 8 8 7 6 6 6 6 5 5 5 5 4 3 2 2 2 2 2 2 3 5 8 13 15 11 9 7 5 6 7 8 6 4 4 3 4 8 10 11 9 7 6 5 6 7 8 9 9 9 10 11 11 11 10 9 9 8 7 6 5 5 4 4 4 4 4 4 4 5 5 5 5 5 5 5 5 5 5 nan
nan 1 -0 2 6 10 12 10 8 6 5 6 6 6 6 5 4 4 3 4 5 6 7 8 8 7 7 6 6 6 5 5 5 4 4 3 2 2 1 1 2 2 2 5 9 14 15 13 9 7 7 6 6 8 9 6 4 4 5 6 9 10 10 9 7 6 6 6 7 7 7 7 7 9 10 10 9 9 8 7 6 5 4 4 4 4 4 4 4 4 4 4 4 5 5 5 5 5 5 5 5 6 nan
nan -1 1 5 8 11 12 10 7 6 5 6 6 6 6 5 4 4 3 4 5 6 7 7 7 7 6 6 6 5 5 5 4 4 3 2 2 1 1 1 1 2 5 9 13 15 13 9 7 6 7 7 7 8 8 6 4 3 6 8 9 10 10 9 8 6 6 7 7 6 6 5 6 7 8 8 8 7 6 5 4 4 4 4 4 4 4 4 4 3 4 4 4 4 5 5 6 6 6 6 6 6 nan
nan 3 6 8 9 10 11 9 7 6 5 5 6 6 6 5 4 4 4 4 5 5 6 7 6 6 6 5 5 5 4 4 4 3 2 2 1 1 1 1 2 3 9 13 12 11 10 8 7 6 7 8 8 7 6 5 4 2 5 9 10 11 11 10 8 6 6 6 6 6 6 6 6 6 6 6 5 5 5 4 3 3 3 3 3 3 4 4 4 4 4 4 4 5 5 5 6 6 6 6 6 6 nan
nan 7 8 8 9 10 9 8 7 6 5 5 6 6 6 5 4 4 4 4 5 5 6 6 6 5 5 4 4 2 0 2 2 2 2 2 1 1 1 1 3 6 11 11 10 9 10 8 7 6 7 8 8 7 5 4 3 2 6 10 11 12 12 10 8 6 6 6 7 7 8 8 8 7 6 4 4 3 4 4 3 3 3 3 3 3 3 4 4 4 5 5 5 5 6 6 6 6 6 6 6 6 nan
nan 7 8 8 9 9 8 8 7 6 5 5 6 6 6 5 4 4 4 4 5 5 6 6 5 5 5 3 0 -3 -3 1 1 2 3 2 2 1 2 3 5 8 9 9 9 9 8 8 7 7 7 8 8 6 5 3 2 4 8 11 11 12 12 11 8 6 7 7 7 8 9 9 8 7 5 4 3 3 3 3 3 3 3 3 3 3 3 4 4 5 5 6 6 6 6 6 6 6 6 7 7 7 nan
nan 8 7 7 7 8 8 7 7 6 6 6 7 7 6 5 4 4 4 4 5 5 5 6 6 5 4 1 -4 -6 -1 2 2 3 4 4 4 3 3 5 7 9 8 9 8 8 8 8 7 7 7 8 7 6 4 2 2 6 10 11 12 12 12 10 8 7 7 8 8 8 8 8 7 6 4 4 3 3 3 3 3 3 3 3 3 4 4 4 5 5 6 6 7 7 7 7 7 7 7 7 6 6 nan
nan 6 6 6 6 7 7 7 7 7 7 8 8 7 6 5 4 4 4 5 5 5 5 6 6 6 3 -2 -6 -5 2 5 5 5 5 7 7 6 6 8 9 9 9 9 8 8 8 8 7 8 8 8 7 6 3 2 3 7 11 12 12 12 12 10 8 7 7 8 8 8 7 6 5 4 3 3 3 3 4 4 4 4 4 4 4 5 5 5 5 6 7 7 7 8 8 7 7 7 7 6 6 6 nan
nan 3 4 4 5 5 5 6 6 7 8 8 6 6 5 4 3 4 5 5 5 5 6 5 5 5 2 -4 -4 -1 4 7 6 6 6 7 8 7 8 8 9 9 9 8 8 8 8 7 7 8 9 8 7 5 3 3 4 7 12 14 13 13 11 9 8 7 7 8 7 7 6 5 4 3 3 3 4 4 4 4 4 4 4 5 5 5 5 6 6 6 7 7 8 8 8 8 7 7 7 7 6 6 nan
nan 2 2 3 3 2 2 4 5 6 8 5 1 2 3 3 4 4 4 4 5 6 5 3 2 4 3 1 1 3 6 8 7 7 7 7 7 7 7 7 8 8 8 8 8 7 7 7 7 8 9 9 6 3 2 3 5 9 13 15 15 14 12 9 8 7 7 7 6 6 5 4 4 3 3 3 3 4 4 4 4 4 4 5 5 6 6 6 6 7 7 8 8 8 8 8 7 7 7 6 6 6 nan
nan 3 3 2 2 1 1 3 5 5 8 4 -2 -0 3 4 5 5 3 2 5 6 5 2 3 4 5 6 5 5 8 9 8 8 7 8 7 7 7 7 7 7 7 7 7 7 7 7 7 7 9 9 6 2 0 2 7 10 14 17 18 17 14 11 9 8 7 6 5 4 4 3 3 3 3 3 4 4 4 4 4 5 5 5 6 6 6 7 7 7 8 8 8 8 8 7 7 7 6 6 6 6 nan
nan 5 5 4 4 3 3 5 5 6 8 5 -0 1 5 5 6 5 3 4 6 7 5 3 4 6 7 7 8 7 9 9 8 8 7 7 8 8 8 7 7 7 8 8 7 7 7 7 7 8 10 9 6 3 1 3 7 11 15 19 19 18 15 12 10 9 7 5 4 4 3 3 3 3 3 3 4 4 4 5 5 5 6 6 6 6 6 7 7 7 7 8 8 8 7 7 7 6 6 6 6 6 nan
nan 6 6 6 6 5 5 6 6 6 8 6 2 3 6 7 7 6 4 5 7 8 6 5 5 6 7 7 8 8 9 9 7 7 7 7 8 8 8 8 7 7 8 8 7 7 7 7 7 8 10 9 6 3 2 4 8 11 16 19 18 17 14 12 10 9 7 5 4 3 3 3 3 3 4 4 4 4 5 5 5 6 6 6 6 6 6 6 7 7 7 7 7 7 7 7 7 6 6 6 6 6 nan
nan 7 7 7 7 6 6 6 6 7 7 7 5 5 6 9 8 6 5 5 7 8 7 6 6 6 7 7 8 9 9 8 7 7 7 8 8 8 8 8 7 7 8 7 7 7 6 7 7 8 9 8 6 4 2 3 7 11 16 18 17 15 12 10 9 7 6 4 3 3 3 3 3 4 4 4 4 5 5 6 6 6 6 6 6 6 6 6 6 7 7 7 7 7 7 7 6 6 6 6 6 6 nan
nan 7 8 8 8 7 7 6 7 7 8 8 7 6 6 9 8 7 6 6 8 8 8 7 7 7 7 8 8 8 8 8 8 7 8 9 9 8 8 7 7 8 8 7 7 7 7 7 7 8 8 7 5 3 1 2 7 11 15 17 17 15 11 9 7 6 5 4 4 3 3 3 4 4 4 4 5 5 6 6 6 6 6 6 6 6 6 6 6 6 7 7 7 7 7 7 6 6 6 6 6 7 nan
nan 7 8 9 8 8 7 6 7 8 9 9 8 6 7 9 8 8 7 7 8 9 9 8 8 7 7 8 8 8 7 7 7 7 8 8 8 8 8 8 7 8 7 7 7 7 7 7 7 8 9 8 6 4 -0 1 6 10 13 16 17 16 12 9 7 6 5 4 4 4 4 4 4 4 5 5 5 6 6 6 6 6 6 6 6 7 6 6 6 7 7 7 7 7 7 6 6 6 6 6 7 7 nan
nan 7 8 8 8 9 8 7 7 8 9 9 8 6 7 7 9 9 8 8 9 9 9 8 8 8 8 8 9 8 7 7 7 7 7 7 7 8 8 8 8 7 7 7 7 7 7 7 8 8 9 9 6 5 1 0 4 9 12 15 17 16 14 11 8 6 5 5 5 5 4 4 4 5 5 5 5 6 6 6 6 6 6 6 6 6 6 6 6 6 6 6 6 6 6 6 6 6 6 6 7 7 nan
nan 7 7 8 8 8 8 8 8 8 8 8 7 7 7 6 9 10 9 8 8 8 8 8 8 9 8 8 8 8 7 7 7 7 7 7 7 7 8 8 8 7 7 7 7 7 7 7 8 9 9 9 7 6 4 1 2 6 10 13 15 16 15 13 10 8 6 6 5 5 5 5 5 5 5 5 6 6 6 6 6 6 6 6 6 6 6 6 6 6 6 6 6 6 6 6 6 6 6 7 7 7 nan
nan 7 7 7 7 8 8 8 8 8 8 7 7 7 7 6 7 9 10 8 7 7 7 8 8 8 8 7 7 7 8 7 7 7 7 7 7 7 7 8 8 8 8 7 7 7 8 7 8 8 9 8 7 6 5 3 2 4 8 11 12 14 16 15 13 11 8 7 6 6 5 5 5 5 5 5 6 6 6 6 6 6 6 6 6 6 6 6 6 6 6 6 5 5 5 5 5 6 6 6 7 7 nan
nan 7 7 7 7 7 8 8 7 7 7 7 7 7 7 7 7 8 9 8 7 7 6 7 7 7 7 7 7 7 8 7 7 7 7 7 7 7 7 8 8 8 7 7 7 8 8 8 8 8 8 9 8 6 5 4 2 2 5 9 11 12 14 14 13 12 10 9 8 6 6 6 6 5 6 6 6 6 7 7 6 6 6 6 6 6 6 6 6 6 5 5 5 5 5 5 5 5 6 6 7 7 nan
nan 8 8 7 7 7 8 8 7 7 7 7 8 8 8 7 6 7 8 9 8 8 7 7 7 7 7 7 7 8 8 8 7 7 7 7 7 7 7 8 8 8 8 7 7 7 7 8 8 8 9 10 9 7 6 5 3 1 1 6 8 10 12 13 13 12 12 10 8 7 6 6 6 6 6 7 7 7 7 7 6 6 6 6 6 6 6 6 6 6 6 5 5 5 5 5 5 5 6 6 6 6 nan
nan 7 7 7 7 7 8 8 7 7 7 7 8 8 8 7 6 6 7 9 9 9 8 8 8 8 8 7 7 8 8 8 7 7 7 7 7 7 8 8 8 8 8 7 7 7 7 7 8 8 9 9 10 9 7 5 4 2 0 3 6 8 10 11 12 12 13 11 9 7 6 6 6 6 7 7 7 7 7 7 6 6 5 5 6 6 6 7 6 6 6 6 5 5 5 5 5 5 5 6 6 6 nan
nan 7 7 7 7 7 7 8 7 7 7 8 8 8 8 7 6 6 6 8 10 9 8 8 8 8 8 8 8 9 8 7 7 7 8 7 7 7 8 8 8 8 8 7 7 7 7 7 7 7 8 9 10 9 7 5 5 4 3 3 4 6 8 10 11 12 13 12 10 8 6 6 6 7 7 7 8 8 7 7 7 6 5 5 5 6 6 7 7 7 7 6 6 5 5 5 5 5 5 5 5 5 nan
nan 7 7 7 7 8 7 8 8 8 7 8 8 9 8 7 6 6 6 7 8 8 7 7 7 7 7 8 8 8 7 7 7 7 7 7 7 8 8 7 7 8 8 7 7 7 7 6 7 8 8 9 9 9 7 5 5 5 5 4 3 3 4 7 9 11 13 13 12 10 8 7 7 7 8 8 8 8 7 7 7 6 6 6 6 6 6 6 7 7 7 7 6 6 5 5 5 5 5 5 5 5 nan
nan 7 7 7 7 8 8 8 8 8 7 8 8 9 8 7 6 6 6 7 7 7 7 7 7 7 6 7 8 7 6 7 7 7 7 8 8 8 7 7 7 8 7 7 8 8 8 6 7 8 8 8 8 9 9 8 7 7 6 4 2 1 0 2 5 9 12 14 14 13 10 8 8 8 8 8 8 8 7 7 6 6 6 6 6 6 6 6 7 7 7 7 7 7 6 5 5 5 5 5 5 5 nan
nan 7 7 7 7 7 7 8 9 9 7 7 8 9 8 7 7 7 7 7 7 7 7 8 8 7 6 6 7 7 6 6 7 7 7 8 9 9 7 7 7 8 7 7 8 9 8 7 7 7 8 8 8 9 10 10 9 7 5 5 4 3 1 1 2 5 9 14 15 15 13 10 9 9 9 8 8 7 7 7 6 6 6 6 6 6 6 6 6 6 7 7 7 7 6 6 6 6 6 5 5 5 nan
nan 8 8 8 7 7 7 8 9 9 8 7 7 8 8 8 8 8 8 8 7 7 7 8 8 7 6 7 7 7 7 6 7 7 7 8 9 9 7 7 8 8 6 7 8 9 8 7 7 8 8 8 8 9 10 11 9 7 6 6 5 5 4 5 4 3 6 11 13 15 14 12 11 9 9 8 8 8 7 7 6 6 6 6 6 6 6 6 6 6 6 7 7 7 7 7 6 6 6 6 6 5 nan
nan 8 8 8 8 7 8 9 10 8 7 7 7 8 8 7 8 8 9 8 7 7 7 7 7 7 7 7 8 9 7 5 6 7 7 8 8 8 7 8 8 8 7 8 8 8 7 7 8 8 8 7 8 8 9 10 9 8 7 6 6 6 6 6 6 5 4 6 10 13 14 13 12 10 9 8 8 8 8 8 7 7 6 6 6 6 6 6 6 6 6 6 7 7 7 7 7 7 7 6 6 6 nan
nan 8 8 8 8 7 9 10 9 7 6 7 8 9 8 7 7 8 9 9 8 7 7 7 7 7 6 6 7 8 8 7 6 7 7 7 7 7 7 8 8 8 8 8 8 7 7 7 9 8 8 7 7 8 9 8 8 8 8 8 7 6 6 7 7 5 5 5 7 10 13 14 13 11 9 8 8 8 8 8 8 7 7 6 6 5 5 6 6 6 6 6 7 7 7 7 7 7 7 6 6 6 nan
nan 7 8 8 8 8 9 10 8 6 7 7 8 8 8 7 8 8 9 8 7 7 7 7 6 6 7 7 6 7 8 8 7 7 7 7 7 7 8 8 8 7 8 8 7 7 6 7 8 9 7 7 8 9 8 7 7 8 10 10 9 8 8 8 7 4 4 6 6 7 11 15 13 12 10 8 8 7 8 8 8 8 7 6 6 5 5 5 5 6 6 6 6 6 7 7 7 7 7 7 6 6 nan
nan 7 7 8 8 9 10 9 7 6 7 7 8 8 8 7 8 9 9 7 7 7 7 7 7 7 7 7 7 7 8 7 7 7 8 7 7 7 8 8 7 7 8 8 7 7 7 7 8 9 8 8 8 8 8 7 6 7 9 10 10 10 10 9 6 4 5 6 6 6 10 13 13 14 12 9 8 7 6 7 8 8 7 6 5 5 5 5 5 5 5 5 6 6 6 7 6 7 6 6 6 6 nan
nan 6 7 8 8 9 10 8 7 7 7 7 8 8 7 7 8 8 8 8 7 7 7 8 7 6 7 8 8 7 8 7 7 7 8 7 7 8 9 8 7 7 7 8 7 7 7 7 8 9 8 8 8 8 7 7 7 7 7 8 9 10 11 10 8 7 7 6 6 6 7 10 12 13 12 9 7 6 6 6 8 8 7 6 5 5 5 5 5 5 5 5 5 5 6 6 6 6 6 6 6 6 nan
nan 6 6 7 8 9 9 8 7 7 7 8 8 8 7 8 8 8 7 8 7 6 7 8 8 7 7 8 9 8 7 8 7 8 7 7 8 9 9 7 6 6 8 8 7 7 7 8 9 8 8 8 9 8 7 7 7 7 7 7 8 9 10 10 10 10 9 7 5 5 6 8 10 11 10 6 5 4 4 6 8 9 8 7 6 5 5 5 5 5 5 5 5 5 5 6 6 6 6 6 6 6 nan
nan 6 7 7 7 8 9 7 6 7 8 9 9 8 7 8 8 7 7 7 7 7 7 8 8 7 6 8 9 9 8 9 9 9 8 7 8 9 8 6 6 7 8 7 7 8 8 8 8 7 7 8 8 8 8 8 7 7 7 7 8 9 8 8 9 10 11 9 7 7 6 6 6 7 6 4 3 3 4 7 8 9 8 7 7 6 5 5 5 5 5 5 5 5 5 5 6 6 6 6 6 6 nan
nan 6 7 7 7 8 8 7 6 7 8 8 9 8 7 7 7 7 6 7 7 7 7 8 8 8 6 6 8 10 9 9 10 10 8 7 8 10 8 6 7 8 8 7 7 8 9 9 8 7 7 7 8 8 9 9 7 7 7 7 8 8 8 7 7 8 9 9 10 10 7 5 5 5 4 4 4 5 8 9 9 8 8 7 6 6 4 4 4 5 5 5 5 5 6 6 6 6 5 5 6 6 nan
nan 7 7 8 7 8 8 7 6 7 8 8 8 8 7 7 8 8 7 7 7 8 8 8 8 8 7 6 7 8 9 9 9 9 8 7 8 11 9 6 7 8 8 8 8 8 8 8 8 7 7 7 7 7 8 9 8 7 6 7 8 9 8 7 6 6 6 9 12 11 8 6 5 4 5 5 6 7 9 11 10 8 7 6 6 5 4 4 4 5 5 5 5 5 6 6 6 6 6 6 6 6 nan
nan 7 8 9 8 7 8 8 6 7 8 7 8 9 7 6 7 7 6 7 8 9 9 9 9 8 8 6 6 7 9 9 9 9 8 7 7 9 9 7 7 7 8 10 10 10 8 7 7 7 7 7 7 7 7 9 9 8 7 8 8 8 8 7 6 5 6 9 12 12 8 6 5 4 5 5 6 7 8 10 11 10 8 6 5 5 4 4 4 5 5 5 5 5 5 6 6 6 6 6 6 6 nan
nan 6 8 9 9 8 8 8 7 7 7 7 8 9 9 8 7 7 6 5 6 8 9 10 11 9 7 6 6 7 8 9 10 10 8 5 4 4 6 8 7 7 7 9 10 12 9 6 7 7 7 7 7 7 7 9 9 8 8 8 8 8 8 7 6 5 7 9 10 10 8 6 5 5 5 6 6 7 7 8 9 11 11 9 7 5 4 4 5 5 6 6 6 5 6 6 6 6 6 6 6 7 nan
nan 6 6 8 9 8 8 8 7 7 8 8 8 9 10 9 8 8 8 4 3 5 7 9 11 11 9 6 6 7 8 8 8 7 5 5 5 3 4 6 7 7 7 7 9 10 10 8 8 7 7 7 7 8 8 8 9 8 8 8 7 8 8 7 6 6 8 9 8 7 7 6 5 5 6 7 7 8 8 7 8 9 10 10 9 7 6 7 7 7 7 7 7 6 6 6 6 6 7 7 7 8 nan
nan 7 6 7 8 8 9 9 7 7 9 10 10 9 10 9 7 8 10 8 4 2 4 6 8 12 11 8 7 8 8 7 6 1 3 8 7 5 6 7 6 7 7 6 6 7 10 10 9 9 7 7 7 8 8 8 9 8 7 7 8 8 8 8 7 7 9 9 8 7 6 5 4 5 8 9 9 9 9 8 8 8 7 8 8 8 9 11 12 10 8 8 8 7 7 7 7 7 7 8 8 9 nan
nan 7 7 7 7 8 9 10 8 7 8 9 10 9 10 10 7 7 10 12 9 5 2 2 5 9 10 10 9 11 9 7 6 2 4 7 6 6 7 7 5 6 9 7 5 5 8 9 9 10 9 7 7 7 8 8 9 8 8 7 8 8 8 8 8 8 9 9 8 8 7 5 5 5 8 10 10 10 10 10 8 7 7 8 9 9 10 12 13 13 11 9 8 7 8 8 8 8 8 9 10 10 nan
nan 6 5 6 7 7 9 10 10 8 6 8 9 9 9 10 8 6 7 10 11 9 6 4 3 5 8 9 9 12 11 7 6 3 2 5 6 5 5 6 5 7 9 8 7 8 8 11 10 10 11 10 8 7 7 8 8 9 9 7 7 7 8 9 9 9 9 8 8 9 8 6 7 7 8 9 9 9 10 10 9 8 8 9 10 9 10 12 12 12 11 10 9 9 8 8 9 9 10 11 11 11 nan
nan 8 4 3 5 6 8 10 10 10 6 7 9 10 10 9 7 6 5 7 8 8 9 7 4 3 6 7 8 9 11 10 7 4 3 5 5 4 3 5 7 8 8 8 6 10 14 15 12 10 10 12 11 9 8 8 7 8 9 8 7 7 8 9 9 9 9 9 8 9 8 7 8 8 8 8 9 9 9 10 10 10 10 10 9 10 12 13 12 8 8 10 10 10 9 10 10 11 11 12 12 11 nan
nan 8 6 3 3 5 8 9 9 9 7 7 9 11 11 10 7 7 7 7 5 5 6 8 6 2 3 7 7 7 11 12 9 7 5 3 4 1 2 5 7 6 6 7 6 8 13 18 15 11 10 13 11 10 10 10 8 8 8 8 7 7 7 8 9 9 8 8 9 11 9 8 8 8 7 6 8 9 9 9 9 9 10 11 12 12 12 11 6 3 5 7 9 11 11 12 12 12 12 12 11 10 nan
nan 7 6 6 4 3 5 8 8 8 7 7 8 10 10 11 10 9 8 9 7 5 3 6 8 3 0 6 9 8 8 11 11 10 8 4 3 -1 1 5 6 5 6 7 8 8 12 14 10 9 12 14 12 10 10 12 11 9 8 8 8 7 6 7 9 9 9 8 8 9 10 10 10 9 6 6 7 8 9 9 8 8 9 10 11 10 9 7 4 4 5 7 9 12 15 15 13 11 11 10 9 8 nan
nan 9 8 7 6 4 3 6 8 8 8 7 8 9 9 10 11 11 11 10 9 8 4 5 10 10 3 3 8 9 7 9 11 11 10 8 6 1 -0 5 8 10 9 9 11 11 14 11 6 6 12 14 14 9 10 12 11 9 9 8 8 9 7 6 8 9 9 8 8 8 10 11 10 8 7 7 7 8 8 8 8 8 9 9 9 8 9 8 7 6 6 7 9 15 20 16 12 9 8 7 7 6 nan
nan 9 10 9 8 6 4 4 7 7 8 8 8 9 9 9 9 10 12 12 10 10 6 3 7 11 10 4 5 8 7 6 7 10 11 11 10 7 2 2 6 12 14 14 14 13 12 8 7 6 10 11 11 8 10 12 11 9 10 10 8 9 9 8 8 9 8 7 7 8 10 10 9 9 8 7 7 8 8 8 8 8 9 8 9 10 13 13 12 9 10 11 12 16 18 13 10 7 6 5 5 5 nan
nan 8 9 9 9 8 6 4 5 6 8 9 8 9 9 9 9 8 11 12 12 11 8 4 5 7 10 6 4 7 8 6 5 7 10 11 13 12 7 2 1 4 11 12 13 11 10 8 7 7 7 8 8 7 8 12 12 11 10 11 10 10 9 8 8 8 8 6 6 8 9 9 10 9 8 7 7 8 9 8 8 9 8 7 9 12 16 15 15 14 14 12 12 13 13 10 7 6 5 5 4 4 nan
nan 7 9 10 10 8 8 7 6 5 7 8 8 9 10 10 9 8 9 12 12 11 9 7 5 4 7 8 7 8 10 7 6 6 8 9 11 13 11 6 3 2 3 6 8 8 9 9 9 10 8 9 10 10 8 9 11 11 11 11 11 10 9 8 9 9 9 8 7 8 9 9 9 9 8 7 7 8 9 9 9 9 8 8 10 11 11 11 12 11 10 10 10 10 9 8 6 6 6 5 5 5 nan
nan nan nan nan nan nan nan nan nan nan nan nan nan nan nan nan nan nan nan nan nan nan nan nan nan nan nan nan nan nan nan nan nan nan nan nan nan nan nan nan nan nan nan nan nan nan nan nan nan nan nan nan nan nan nan nan nan nan nan nan nan nan nan nan nan nan nan nan nan nan nan nan nan nan nan nan nan nan nan nan nan nan nan nan nan nan nan nan nan nan nan nan nan nan nan nan nan nan nan nan nan nan nan
CAPE
54 33 16 11 10 10 8 2 nan nan nan nan nan nan nan 0 0 1 1 1 1 0 nan nan nan nan nan nan nan nan 2 8 13 13 21 18 18 12 1 nan nan nan nan nan 2 2 7 3 nan nan nan nan nan nan nan nan nan nan nan nan nan nan nan 211 210 210 204 261 355 355 395 247 216 216 349 532 532 642 564 553 553 604 735 936 964 964 835 833 886 886 852 897 975 975 909 857 857 779 685 702 702 756 851
48 35 19 11 8 8 5 0 nan nan nan nan nan nan 0 6 6 11 6 2 2 nan nan nan nan nan nan nan nan nan 5 8 18 18 26 28 28 18 7 2 2 0 nan nan 1 1 7 2 nan nan nan nan nan nan nan nan nan nan nan nan nan nan nan 65 112 112 127 175 330 330 421 290 259 259 356 462 462 459 460 453 453 524 656 851 1046 1046 981 982 935 935 895 886 848 848 773 696 696 652 562 571 571 617 686
52 35 18 9 5 5 1 nan nan nan nan nan 2 2 10 19 19 23 9 1 1 nan nan nan nan nan nan nan 0 0 9 17 20 20 28 26 26 17 9 3 3 0 nan nan 0 0 6 3 nan nan nan nan nan nan nan nan nan nan nan nan nan nan nan 50 54 54 71 138 279 279 397 317 284 284 357 362 362 299 332 363 363 451 580 714 889 889 957 938 879 879 838 741 664 664 592 545 545 503 496 509 509 490 524
51 28 12 2 0 0 nan nan nan nan 2 11 24 24 33 33 33 21 9 1 1 nan nan nan nan nan nan 0 5 5 16 21 23 23 26 21 21 12 6 1 1 0 0 0 1 1 nan nan nan nan nan nan nan nan nan nan nan nan nan nan nan nan 3 44 64 64 67 124 255 255 374 369 337 337 308 297 297 228 229 287 287 409 508 538 643 643 756 734 687 687 650 593 524 524 498 471 471 454 427 418 418 399 405
53 25 5 0 nan nan nan nan 3 3 16 35 54 54 58 46 46 29 13 2 2 nan nan nan nan nan nan 1 15 15 26 32 30 30 28 22 22 11 2 0 0 nan 0 1 0 0 nan nan nan nan nan nan nan nan nan nan nan nan nan nan nan nan 48 45 81 81 91 163 260 260 375 422 393 393 310 219 219 178 147 220 220 350 442 449 506 506 582 573 520 520 519 467 435 435 390 361 361 361 332 299 299 305 295
51 25 3 nan nan nan nan 3 16 16 40 60 77 77 76 59 59 35 15 1 1 nan nan nan nan nan nan 8 24 24 34 41 39 39 28 22 22 8 2 0 0 0 0 0 nan nan nan nan nan nan nan nan nan nan nan nan nan nan nan nan nan 4 51 35 84 84 117 166 263 263 351 399 370 370 259 168 168 109 113 172 172 297 380 407 445 445 452 466 422 422 397 387 357 357 329 313 313 262 219 208 208 194 205
63 29 2 nan 1 1 3 13 31 31 50 71 78 78 66 61 61 38 11 nan nan nan nan nan nan nan 2 17 34 34 46 50 38 38 28 15 15 6 1 0 0 nan nan nan nan nan nan nan nan nan nan nan nan nan nan nan nan nan nan nan nan 52 52 31 78 78 119 146 220 220 282 302 283 283 192 128 128 83 81 116 116 243 319 363 395 395 381 359 322 322 312 316 303 303 260 236 236 199 175 134 134 118 109
60 27 10 3 9 9 19 31 45 45 64 72 73 73 68 56 56 29 5 nan nan nan nan nan nan nan 6 28 45 45 54 47 35 35 25 13 13 3 nan nan nan nan nan nan nan nan nan nan nan nan nan nan nan nan nan nan nan nan nan nan nan 45 62 40 81 81 110 117 168 168 206 245 194 194 115 92 92 75 60 84 84 178 258 276 275 275 259 262 244 244 234 237 219 219 195 155 155 138 114 85 85 67 57
61 36 21 21 30 30 38 45 58 58 73 74 67 67 61 51 51 21 1 nan nan nan nan nan 0 0 13 35 49 49 53 46 30 30 16 4 4 nan nan nan nan nan nan nan nan nan nan nan nan nan nan nan nan nan nan nan nan nan nan nan nan 8 55 37 93 93 103 108 136 136 189 210 129 129 103 88 88 74 61 96 96 142 173 211 189 189 167 146 153 153 149 146 144 144 124 101 101 78 54 47 47 35 28
59 47 43 44 57 57 55 55 67 67 74 74 68 68 62 40 40 10 nan nan nan nan nan nan 3 3 25 47 57 57 44 37 22 22 7 nan nan nan nan nan nan nan nan nan nan nan nan nan nan nan nan nan nan nan nan nan nan nan nan nan nan 31 54 39 90 90 124 150 171 171 187 225 169 169 108 93 93 92 98 98 98 125 119 131 113 113 77 59 71 71 62 59 58 58 55 40 40 37 26 24 24 15 9
66 51 47 48 67 67 72 80 78 78 70 64 65 65 59 27 27 4 nan nan nan nan nan nan 6 6 36 55 47 47 35 19 8 8 0 nan nan nan nan nan nan nan nan nan nan nan nan nan nan nan nan nan nan nan nan nan nan nan nan nan nan 46 33 40 92 92 167 206 225 225 219 243 204 204 134 102 102 112 126 125 125 107 102 90 60 60 30 25 18 18 15 16 17 17 13 13 13 10 10 8 8 4 2
69 68 65 58 76 76 103 99 90 90 75 62 63 63 52 22 22 4 nan nan nan nan nan 2 14 14 50 47 39 39 27 10 1 1 nan nan nan nan nan nan nan nan nan nan nan nan nan nan nan nan nan nan nan nan nan nan nan nan nan nan nan 24 16 39 88 88 183 247 246 246 240 311 269 269 174 147 147 158 158 119 119 89 69 50 22 22 11 6 3 3 1 1 1 1 2 3 3 4 4 3 3 3 1
82 92 84 58 93 93 122 118 95 95 86 73 62 62 47 23 23 2 nan nan nan nan 3 12 34 34 55 46 32 32 17 3 nan nan nan nan nan nan nan nan nan nan nan nan nan nan nan nan nan nan nan nan nan nan nan nan nan nan nan 17 17 4 3 27 94 94 178 245 245 245 241 313 271 271 191 177 177 173 135 89 89 66 40 24 13 13 6 3 0 0 nan nan nan nan nan 0 0 1 2 1 1 1 0
109 118 60 96 119 119 140 128 106 106 83 71 67 67 52 24 24 5 nan nan nan nan 7 27 56 56 57 42 24 24 7 nan nan nan nan nan nan nan nan nan nan nan nan nan nan nan nan nan nan nan nan nan nan nan nan nan nan nan nan nan nan nan 4 24 88 88 171 195 195 195 191 214 198 198 196 169 169 145 85 63 63 42 24 15 12 12 6 2 0 0 nan nan nan nan nan nan nan 0 1 1 1 1 0
94 48 54 101 138 138 149 130 110 110 87 75 71 71 50 31 31 10 0 nan nan 0 16 42 68 68 58 33 10 10 0 nan nan nan nan nan nan nan nan nan nan nan nan nan nan nan nan nan nan nan nan nan nan nan nan nan nan nan nan nan nan nan 5 21 80 80 147 127 130 130 113 126 124 124 143 127 127 84 59 42 42 34 20 14 9 9 6 3 1 1 0 nan nan nan nan 0 0 1 2 2 2 2 1
0 nan 26 100 143 143 152 133 113 113 90 86 75 75 59 34 34 15 2 nan nan 0 18 46 63 63 48 21 3 3 nan nan nan nan nan nan nan nan nan nan nan nan nan nan nan nan nan nan nan nan nan nan nan nan nan nan nan nan 0 nan nan nan 6 31 90 90 110 78 70 70 62 55 69 69 81 74 74 59 47 40 40 28 18 11 8 8 4 1 1 1 nan nan nan nan 0 0 0 1 3 3 3 4 3
nan nan 1 102 132 132 157 145 116 116 94 96 85 85 68 42 42 17 3 nan nan nan 13 42 54 54 41 10 0 0 nan nan nan nan nan nan nan nan nan nan nan nan nan nan nan nan nan nan nan nan nan nan nan nan nan nan nan nan 15 nan nan nan 7 29 76 76 70 50 50 50 60 58 66 66 59 52 52 36 38 30 30 21 12 6 3 3 0 nan nan nan nan nan nan nan 0 0 0 1 2 3 3 3 2
nan nan 59 86 127 127 153 149 136 136 112 114 101 101 76 45 45 24 4 nan nan nan 5 26 39 39 27 9 nan nan nan nan nan nan nan nan nan nan nan nan nan nan nan nan nan nan nan nan nan nan nan nan nan nan nan nan nan 3 11 nan nan nan 4 38 51 51 60 43 46 46 67 68 50 50 41 32 32 26 23 18 18 13 7 2 nan nan nan nan nan nan nan nan nan nan nan 0 0 1 1 2 2 3 2
nan 6 45 80 114 114 140 145 147 147 138 138 117 117 84 52 52 26 9 0 0 nan nan 12 27 27 25 11 nan nan nan nan nan nan nan nan nan nan nan nan nan nan nan nan nan nan nan nan nan nan nan nan nan nan nan nan nan 2 1 nan nan nan 8 41 55 55 58 47 47 47 67 60 40 40 28 18 18 12 9 6 6 5 2 nan nan nan nan nan nan nan nan nan nan nan nan nan nan 0 1 1 1 1 1
nan 12 39 56 79 79 101 112 130 130 146 154 114 114 94 54 54 34 29 6 6 0 nan 3 12 12 10 nan nan nan nan nan nan nan nan nan nan nan nan nan nan nan nan nan nan nan nan nan nan nan nan nan nan nan nan nan nan 6 9 nan nan nan 9 49 58 58 56 51 36 36 30 25 19 19 11 3 3 1 0 nan nan nan nan nan nan nan nan nan nan nan nan nan nan nan nan nan nan 0 0 0 0 0 0
nan nan 3 30 42 42 58 54 72 72 108 136 25 25 8 3 3 21 17 nan nan nan 7 nan nan nan nan nan nan nan nan nan nan nan nan nan nan nan nan nan nan nan nan nan nan nan nan nan nan nan nan nan nan nan nan nan nan 2 14 nan nan 0 11 45 53 53 55 51 28 28 21 14 10 10 4 0 0 nan nan nan nan nan nan nan nan nan nan nan nan nan nan nan nan nan nan nan nan 0 0 0 0 0 0
nan nan nan 2 7 7 21 23 22 22 43 104 nan nan nan nan nan nan nan nan nan nan nan nan nan nan nan nan nan nan nan nan nan nan nan nan nan nan nan nan nan nan nan nan nan nan nan nan nan nan nan nan nan nan nan nan nan nan 10 nan nan 4 18 43 51 51 56 43 23 23 13 8 3 3 0 nan nan nan nan nan nan nan nan nan nan nan nan nan nan nan nan nan nan nan nan 0 0 0 0 0 0 0 0
nan nan nan nan 4 4 20 46 36 36 22 41 nan nan nan nan nan nan nan nan nan nan nan nan nan nan nan nan nan nan nan nan nan nan nan nan nan nan nan nan nan nan nan nan nan nan nan nan nan nan nan nan nan nan nan nan nan nan 7 1 1 9 26 39 47 47 45 34 20 20 9 3 0 0 nan nan nan nan nan nan nan nan nan nan nan nan nan nan nan nan nan nan nan nan nan 0 0 0 0 0 0 0 0
nan nan nan nan nan nan 4 48 62 62 29 18 8 8 nan nan nan nan nan nan nan nan nan nan nan nan nan nan nan nan nan nan nan nan nan nan nan nan nan nan nan nan nan nan nan nan nan nan nan nan nan nan nan nan nan nan nan nan 2 5 5 18 32 44 43 43 35 25 17 17 8 2 nan nan nan nan nan nan nan nan nan nan nan nan nan nan nan nan nan nan nan nan nan nan nan 0 0 0 0 0 0 0 0
nan nan nan nan nan nan nan 26 78 78 44 19 15 15 0 nan nan nan nan nan nan nan nan nan nan nan nan nan nan nan nan nan nan nan nan nan nan nan nan nan nan nan nan nan nan nan nan nan nan nan nan nan nan nan nan nan nan nan nan 26 26 30 28 37 40 40 24 16 10 10 4 1 nan nan nan nan nan nan nan nan nan nan nan nan nan nan nan nan nan nan nan nan nan nan nan 0 0 0 0 0 0 nan nan
nan nan nan nan nan nan nan 0 59 59 37 19 13 13 1 nan nan nan nan nan nan nan nan nan nan nan nan nan nan nan nan nan nan nan nan nan nan nan nan nan nan nan nan nan nan nan nan nan nan nan nan nan nan nan nan nan nan nan nan 18 18 29 23 23 23 23 17 12 6 6 1 nan nan nan nan nan nan nan nan nan nan nan nan nan nan nan nan nan nan nan nan nan nan nan nan nan nan 0 0 nan nan nan nan
nan nan nan nan nan nan nan nan 18 18 15 9 0 0 nan nan nan nan nan nan nan nan nan nan nan nan nan nan nan nan nan nan nan nan nan nan nan nan nan nan nan nan nan nan nan nan nan nan nan nan nan nan nan nan nan nan nan nan nan 0 0 21 21 10 13 13 13 7 2 2 nan nan nan nan nan nan nan nan nan nan nan nan nan nan nan nan nan nan nan nan nan nan nan nan nan nan nan nan nan nan nan nan nan
nan nan nan nan nan nan nan nan nan nan 2 2 nan nan nan nan nan nan nan nan nan nan nan nan nan nan nan nan nan nan nan nan nan nan nan nan nan nan nan nan nan nan nan nan nan nan nan nan nan nan nan nan nan nan nan nan nan nan nan nan nan 8 13 5 3 3 6 3 nan nan nan nan nan nan nan nan nan nan nan nan nan nan nan nan nan nan nan nan nan nan nan nan nan nan nan nan nan nan nan nan nan nan nan
nan nan nan nan nan nan nan nan nan nan nan nan nan nan nan nan nan nan nan nan nan nan nan nan nan nan nan nan nan nan nan nan nan nan nan nan nan nan nan nan nan nan nan nan nan nan nan nan nan nan nan nan nan nan nan nan nan nan nan nan nan 0 5 4 0 0 1 nan nan nan nan nan nan nan nan nan nan nan nan nan nan nan nan nan nan nan nan nan nan nan nan nan nan nan nan nan nan nan nan nan nan nan nan
nan nan nan nan nan nan nan nan nan nan nan nan nan nan nan nan nan nan nan nan nan nan nan nan nan nan nan nan nan nan nan nan nan nan nan nan nan nan nan nan nan nan nan nan nan nan nan nan nan nan nan nan nan nan nan nan nan nan nan nan nan nan 0 1 nan nan nan nan nan nan nan nan nan nan nan nan nan nan nan nan nan nan nan nan nan nan nan nan nan nan nan nan nan nan nan nan nan nan nan nan nan nan nan
nan nan nan nan nan nan nan nan nan nan nan 0 nan nan nan nan nan nan nan nan nan nan nan nan nan nan nan nan nan nan nan nan nan nan nan nan nan nan nan nan nan nan nan nan nan nan nan nan nan nan nan nan nan nan nan nan nan nan nan nan nan nan nan nan nan nan nan nan nan nan nan nan nan nan nan nan nan nan nan nan nan nan nan nan nan nan nan nan nan nan nan nan nan nan nan nan nan nan nan nan nan nan nan
nan nan nan nan nan nan nan nan nan nan nan nan nan nan nan nan nan nan nan nan nan nan nan nan nan nan nan nan nan nan nan nan nan nan nan nan nan nan nan nan nan nan nan nan nan nan nan nan nan nan nan nan nan nan nan nan nan nan nan nan nan nan nan nan nan nan nan nan nan nan nan nan nan nan nan nan nan nan nan nan nan nan nan nan nan nan nan nan nan nan nan nan nan nan nan nan nan nan nan nan nan nan nan
nan nan nan nan nan nan nan nan nan nan nan nan nan nan nan nan nan nan nan nan nan nan nan nan nan nan nan nan nan nan nan nan nan nan nan nan nan nan nan nan nan nan nan nan nan nan nan nan nan nan nan nan nan nan nan nan nan nan nan nan nan nan nan nan nan nan nan nan nan nan nan nan nan nan nan nan nan nan nan nan nan nan nan nan nan nan nan nan nan nan nan nan nan nan nan nan nan nan nan nan nan nan nan
nan nan nan nan nan nan nan nan nan nan nan nan nan nan nan nan nan nan nan nan nan nan nan nan nan nan nan nan nan nan nan nan nan nan nan nan nan nan nan nan nan nan nan nan nan nan nan nan nan nan nan nan nan nan nan nan nan nan nan nan nan nan nan nan nan nan nan nan nan nan nan nan nan nan nan nan nan nan nan nan nan nan nan nan nan nan nan nan nan nan nan nan nan nan nan nan nan nan nan nan nan nan nan
nan nan nan nan nan nan nan nan nan nan nan nan nan nan nan nan nan nan nan nan nan nan nan nan nan nan nan nan nan nan nan nan nan nan nan nan nan nan nan nan nan nan nan nan nan nan nan nan nan nan nan nan nan nan nan nan nan nan nan nan nan nan nan nan nan nan nan nan nan nan nan nan nan nan nan nan nan nan nan nan nan nan nan nan nan nan nan nan nan nan nan nan nan nan nan nan nan nan nan nan nan nan nan
nan nan nan nan nan nan nan nan nan nan nan nan nan nan nan nan nan nan nan nan nan nan nan nan nan nan nan nan nan nan nan nan nan nan nan nan nan nan nan nan nan nan nan nan nan nan nan nan nan nan nan nan nan nan nan nan nan nan nan nan nan nan nan nan nan nan nan nan nan nan nan nan nan nan nan nan nan nan nan nan nan nan nan nan nan nan nan nan nan nan nan nan nan nan nan nan nan nan nan nan nan nan nan
nan nan nan nan nan nan nan nan nan nan nan nan nan nan nan nan nan nan nan nan nan nan nan nan nan nan nan nan nan nan nan nan nan nan nan nan nan nan nan nan nan nan nan nan nan nan nan nan nan nan nan nan nan nan nan nan nan nan nan nan nan nan nan nan nan nan nan nan nan nan nan nan nan nan nan nan nan nan nan nan nan nan nan nan nan nan nan nan nan nan nan nan nan nan nan nan nan nan nan nan nan nan nan
nan nan nan nan nan nan nan nan nan nan nan nan nan nan nan nan nan nan nan nan nan nan nan nan nan nan nan nan nan nan nan nan nan nan nan nan nan nan nan nan nan nan nan nan nan nan nan nan nan nan nan nan nan nan nan nan nan nan nan nan nan nan nan nan nan nan nan nan nan nan nan nan nan nan nan nan nan nan nan nan nan nan nan nan nan nan nan nan nan nan nan nan nan nan nan nan nan nan nan nan nan nan nan
nan nan nan nan nan nan nan nan nan nan nan nan nan nan nan nan nan nan nan nan nan nan nan nan nan nan nan nan nan nan nan nan nan nan nan nan nan nan nan nan nan nan nan nan nan nan nan nan nan nan nan nan nan nan nan nan nan nan nan nan nan nan nan nan nan nan nan nan nan nan nan nan nan nan nan nan nan nan nan nan nan nan nan nan nan nan nan nan nan nan nan nan nan nan nan nan nan nan nan nan nan nan nan
nan nan nan nan nan nan nan nan nan nan nan nan nan nan nan nan nan nan nan nan nan nan nan nan nan nan nan nan nan nan nan nan nan nan nan nan nan nan nan nan nan nan nan nan nan nan nan nan nan nan nan nan nan nan nan nan nan nan nan nan nan nan nan nan nan nan nan nan nan nan nan nan nan nan nan nan nan nan nan nan nan nan nan nan nan nan nan nan nan nan nan nan nan nan nan nan nan nan nan nan nan nan nan
nan nan nan nan nan nan nan nan nan nan nan nan nan nan nan nan nan nan nan nan nan nan nan nan nan nan nan nan nan nan nan nan nan nan nan nan nan nan nan nan nan nan nan nan nan nan nan nan nan nan nan nan nan nan nan nan nan nan nan nan nan nan nan nan nan nan nan nan nan nan nan nan nan nan nan nan nan nan nan nan nan nan nan nan nan nan nan nan nan nan nan nan nan nan nan nan nan nan nan nan nan nan nan
nan nan nan nan nan nan nan nan nan nan nan nan nan nan nan nan nan nan nan nan nan nan nan nan nan nan nan nan nan nan nan nan nan nan nan nan nan nan nan nan nan nan nan nan nan nan nan nan nan nan nan nan nan nan nan nan nan nan nan nan nan nan nan nan nan nan nan nan nan nan nan nan nan nan nan nan nan nan nan nan nan nan nan nan nan nan nan nan nan nan nan nan nan nan nan nan nan nan nan nan nan nan nan
8 3 nan nan nan nan nan nan nan nan nan nan nan nan nan nan nan nan nan nan nan nan nan nan nan nan nan nan nan nan nan nan nan nan nan nan nan nan nan nan nan nan nan nan nan nan nan nan nan nan nan nan nan nan nan nan nan nan nan nan nan nan nan nan nan nan nan nan nan nan nan nan nan nan nan nan nan nan nan nan nan nan nan nan nan nan nan nan nan nan nan nan nan nan nan nan nan nan nan nan nan nan nan
21 10 1 nan nan nan nan nan nan nan nan nan nan nan nan nan nan nan nan nan nan nan nan nan nan nan nan nan nan nan nan nan nan nan nan nan nan nan nan nan nan nan nan nan nan nan nan nan nan nan nan nan nan nan nan nan nan nan nan nan nan nan nan nan nan nan nan nan nan nan nan nan nan nan nan nan nan nan nan nan nan nan nan nan nan nan nan nan nan nan nan nan nan nan nan nan nan nan nan nan nan nan nan
45 23 11 nan nan nan nan nan nan nan nan nan nan nan nan nan nan nan nan nan nan nan nan nan nan nan nan nan nan nan nan nan nan nan nan nan nan nan nan nan nan nan nan nan nan nan nan nan nan nan nan nan nan nan nan nan nan nan nan nan nan nan nan nan nan nan nan nan nan nan nan nan nan nan nan nan nan nan nan nan nan nan nan nan nan nan nan nan nan nan nan nan nan nan nan nan nan nan nan nan nan nan nan
71 40 25 5 nan nan nan nan nan nan nan nan nan nan nan nan nan nan nan nan nan nan nan nan nan nan nan nan nan nan nan nan nan nan nan nan nan nan nan nan nan nan nan nan nan nan nan nan nan nan nan nan nan nan nan nan nan nan nan nan nan nan nan nan nan nan nan nan nan nan nan nan nan nan nan nan nan nan nan nan nan nan nan nan nan nan nan nan nan nan nan nan nan nan nan nan nan nan nan nan nan nan nan
95 74 52 17 1 1 nan nan nan nan nan nan nan nan nan nan nan nan nan nan nan nan nan nan nan nan nan nan nan nan nan nan nan nan nan nan nan nan nan nan nan nan nan nan nan nan nan nan nan nan nan nan nan nan nan nan nan nan nan nan nan nan nan nan nan nan nan nan nan nan nan nan nan nan nan nan nan nan nan nan nan nan nan nan nan nan nan nan nan nan nan nan nan nan nan nan nan nan nan nan nan nan nan
138 108 76 31 11 11 nan nan nan nan nan nan nan nan nan nan nan nan nan nan nan nan nan nan nan nan nan nan nan nan nan nan nan nan nan nan nan nan nan nan nan nan nan nan nan nan nan nan nan nan nan nan nan nan nan nan nan nan nan nan nan nan nan nan nan nan nan nan nan nan nan nan nan nan nan nan nan nan nan nan nan nan nan nan nan nan nan nan nan nan nan nan nan nan nan nan nan nan nan nan nan nan nan
176 151 119 73 29 29 5 nan nan nan nan nan nan nan nan nan nan nan nan nan nan nan nan nan nan nan nan nan nan nan nan nan nan nan nan nan nan nan nan nan nan nan nan nan nan nan nan nan nan nan nan nan nan nan nan nan nan nan nan nan nan nan nan nan nan nan nan nan nan nan nan nan nan nan nan nan nan nan nan nan nan nan nan nan nan nan nan nan nan nan nan nan nan nan nan nan nan nan nan nan nan nan nan
253 206 165 129 58 58 23 0 nan nan nan nan 0 0 0 nan nan nan nan nan nan nan nan nan nan nan nan nan nan nan nan nan nan nan nan nan nan nan nan nan nan nan nan nan nan nan nan nan nan nan nan nan nan nan nan nan nan nan nan nan nan nan nan nan nan nan nan nan nan nan nan nan nan nan nan nan nan nan nan nan nan nan nan nan nan nan nan nan nan nan nan nan nan nan nan nan nan nan nan nan nan nan nan
253 267 203 161 108 108 51 12 nan nan nan nan nan nan 0 0 0 nan nan nan nan nan nan nan nan nan nan nan nan nan nan nan nan nan nan nan nan nan nan nan nan nan nan nan nan nan nan nan nan nan nan nan nan nan nan nan nan nan nan nan nan nan nan nan nan nan nan nan nan nan nan nan nan nan nan nan nan nan nan nan nan nan nan nan nan nan nan nan nan nan nan nan nan nan nan nan nan nan nan nan nan nan nan
251 248 223 196 168 168 98 26 13 13 5 2 0 0 2 1 1 nan nan nan nan nan nan nan nan nan nan nan nan nan nan nan nan nan nan nan nan nan nan nan nan nan nan nan nan nan nan nan nan nan nan nan nan nan nan nan nan nan nan nan nan nan nan nan nan nan nan nan nan nan nan nan nan nan nan nan nan nan nan nan nan nan nan nan nan nan nan nan nan nan nan nan nan nan nan nan nan nan nan nan nan nan nan
229 227 244 259 229 229 180 51 26 26 17 5 3 3 4 3 3 3 nan nan nan nan nan nan nan nan nan nan nan nan nan nan nan nan nan nan nan nan nan nan nan nan nan nan nan nan nan nan nan nan nan nan nan nan nan nan nan nan nan nan nan nan nan nan nan nan nan nan nan nan nan nan nan nan nan nan nan nan nan nan nan nan nan nan nan nan nan nan nan nan nan nan nan nan nan nan nan nan nan nan nan nan nan
252 252 228 285 233 233 183 120 41 41 22 5 1 1 3 2 2 3 nan nan nan nan nan nan nan nan nan nan nan nan nan nan nan nan nan nan nan nan nan nan nan nan nan nan nan nan nan nan nan nan nan nan nan nan nan nan nan nan nan nan nan nan nan nan nan nan nan nan nan nan nan nan nan nan nan nan nan nan nan nan nan nan nan nan nan nan nan nan nan nan nan nan nan nan nan nan nan nan nan nan nan nan nan
258 236 252 288 278 278 203 69 53 53 17 4 0 0 0 nan nan 1 nan nan nan nan nan nan nan nan nan nan nan nan nan nan nan nan nan nan nan nan nan nan nan nan nan nan nan nan nan nan nan nan nan nan nan nan nan nan nan nan nan nan nan nan nan nan nan nan nan nan nan nan nan nan nan nan nan nan nan nan nan nan nan nan nan nan nan nan nan nan nan nan nan nan nan nan nan nan nan nan nan nan nan nan nan
286 262 301 270 238 238 205 114 58 58 14 0 0 0 nan nan nan nan nan nan nan nan nan nan nan nan nan nan nan nan nan nan nan nan nan nan nan nan nan nan nan nan nan nan nan nan nan nan nan nan nan nan nan nan nan nan nan nan nan nan nan nan nan nan nan nan nan nan nan nan nan nan nan nan nan nan nan nan nan nan nan nan nan nan nan nan nan nan nan nan nan nan nan nan nan nan nan nan nan nan nan nan nan
313 264 260 252 221 221 188 172 82 82 37 1 nan nan nan nan nan nan nan nan nan nan nan nan nan nan nan nan nan nan nan nan nan nan nan nan nan nan nan nan nan nan nan nan nan nan nan nan nan nan nan nan nan nan nan nan nan nan nan nan nan nan nan nan nan nan nan nan nan nan nan nan nan nan nan nan nan nan nan nan nan nan nan nan nan nan nan nan nan nan nan nan nan nan nan nan nan nan nan nan nan nan nan
274 286 238 212 183 183 191 217 120 120 85 18 nan nan nan nan nan nan nan nan nan 0 nan nan nan nan nan nan nan nan nan nan nan nan nan nan nan nan nan nan nan nan nan nan nan nan nan nan nan nan nan nan nan nan nan nan nan nan nan nan nan nan nan nan nan nan nan nan nan nan nan nan nan nan nan nan nan nan nan nan nan nan nan nan nan nan nan nan nan nan nan nan nan nan nan nan nan nan nan nan nan nan nan
215 224 217 211 163 163 173 200 183 183 105 27 0 0 nan nan nan nan nan 4 4 18 nan nan nan nan nan nan nan nan nan nan nan nan nan nan nan nan nan nan nan nan nan nan nan nan nan nan nan nan nan nan nan nan nan nan nan nan nan nan nan nan nan nan nan nan nan nan nan nan nan nan nan nan nan nan nan nan nan nan nan nan nan nan nan nan nan nan nan nan nan nan nan nan nan nan nan nan nan nan nan nan nan
219 186 197 150 125 125 155 183 147 147 93 29 12 12 10 nan nan nan nan 4 4 34 20 2 nan nan nan nan nan nan nan nan nan nan nan nan nan nan nan nan nan nan nan nan nan nan nan nan nan nan nan nan nan nan nan nan nan nan nan nan nan nan nan nan nan nan nan nan nan nan nan nan nan nan nan nan nan nan nan nan nan nan nan nan nan nan nan nan nan nan nan nan nan nan nan nan nan nan nan nan nan nan nan
222 189 220 212 166 166 159 147 170 170 85 26 57 57 44 0 0 nan nan nan nan 7 29 10 nan nan nan nan nan nan nan nan nan nan nan nan nan nan nan nan nan nan nan nan nan nan nan nan nan nan nan nan nan nan nan nan nan nan nan nan nan nan nan nan nan nan nan nan nan nan nan nan nan nan nan nan nan nan nan nan nan nan nan nan nan nan nan nan nan nan nan nan nan nan nan nan nan nan nan nan nan nan nan